CDT,Max TemperatureF,Mean TemperatureF,Min TemperatureF,Max Dew PointF,MeanDew PointF,Min DewpointF,Max Humidity, Mean Humidity, Min Humidity, Max Sea Level PressureIn, Mean Sea Level PressureIn, Min Sea Level PressureIn, Max VisibilityMiles, Mean VisibilityMiles, Min VisibilityMiles, Max Wind SpeedMPH, Mean Wind SpeedMPH, Max Gust SpeedMPH,PrecipitationIn, CloudCover, Events, WindDirDegrees
2013-7-1,73,68,63,65,64,63,93,86,78,29.91,29.86,29.80,10,9,2,20,7,24,0.01,7,Rain,346
2013-7-2,75,69,63,66,63,60,100,82,64,30.03,29.93,29.86,10,7,1,15,7,21,0.08,7,Rain,236
2013-7-3,81,72,63,65,62,61,93,76,58,30.11,30.06,30.01,10,9,4,8,2,21,0.00,6,,268
2013-7-4,84,73,61,68,65,61,100,79,58,30.07,30.04,30.00,10,7,2,16,5,23,0.00,1,,104
2013-7-5,83,76,69,69,67,66,90,74,58,30.09,30.05,30.01,10,10,10,12,4,23,0.00,6,,117
2013-7-6,86,75,64,70,67,64,100,78,55,30.09,30.04,29.97,10,9,1,22,5,29,0.42,5,Rain-Thunderstorm,150
2013-7-7,88,76,63,72,68,62,100,75,50,30.10,30.06,30.02,10,10,6,10,3,25,0.00,2,,207
2013-7-8,90,80,70,73,71,68,97,75,52,30.13,30.08,30.04,10,10,8,9,4,15,0.00,0,,203
2013-7-9,93,84,75,75,72,71,87,72,56,30.09,30.04,29.96,10,10,10,14,7,21,0.00,0,,207
2013-7-10,89,82,75,74,72,68,87,70,53,29.98,29.95,29.89,10,10,9,13,5,17,0.00,2,,247
2013-7-11,86,76,66,73,67,59,100,74,47,30.01,29.97,29.92,10,10,7,16,7,21,0.00,1,,25
2013-7-12,84,73,61,62,59,56,93,68,42,30.07,30.03,30.00,10,10,10,16,6,22,0.00,0,,54
2013-7-13,85,71,57,63,61,57,100,74,47,30.06,30.02,29.99,10,10,6,15,4,21,0.00,1,,56
2013-7-14,88,76,63,73,70,62,100,78,55,30.13,30.08,30.01,10,6,0,17,5,22,0.20,2,Fog-Rain,101
2013-7-15,88,79,70,74,72,69,100,80,59,30.23,30.17,30.12,10,8,0,14,6,18,T,2,Fog-Rain,136
2013-7-16,91,80,69,73,71,69,100,76,52,30.30,30.25,30.22,10,9,2,13,3,16,0.00,1,,116
2013-7-17,94,82,70,75,72,71,100,75,49,30.32,30.25,30.17,10,9,2,9,4,15,0.00,0,,69
2013-7-18,92,82,72,78,73,71,94,73,52,30.19,30.13,30.04,10,6,2,14,4,17,0.02,1,Rain-Thunderstorm,133
2013-7-19,90,80,70,73,71,69,100,78,56,30.06,30.01,29.92,10,7,2,14,5,16,0.00,0,,213
2013-7-20,91,81,71,73,71,66,93,73,52,29.96,29.91,29.82,10,9,2,28,8,36,0.12,2,Rain-Thunderstorm,200
2013-7-21,87,78,69,76,71,68,100,85,70,29.97,29.91,29.87,10,8,2,20,3,23,0.30,5,Rain-Thunderstorm,179
2013-7-22,87,79,71,75,72,70,93,76,59,29.89,29.86,29.81,10,8,1,15,6,20,0.70,5,Rain,242
2013-7-23,89,79,69,73,71,68,100,78,56,29.89,29.84,29.77,10,10,6,23,8,31,0.07,2,Rain-Thunderstorm,239
2013-7-24,83,74,65,68,64,59,93,72,51,29.99,29.91,29.84,10,10,7,15,7,22,0.00,2,,22
2013-7-25,82,71,59,62,59,58,93,69,45,30.08,30.04,29.98,10,10,10,13,4,17,0.00,0,,360
2013-7-26,81,69,57,68,62,55,100,77,54,30.06,30.03,29.97,10,9,4,8,2,12,0.01,3,Rain,292
2013-7-27,83,72,61,68,65,56,97,74,50,29.99,29.95,29.89,10,9,5,15,6,18,T,5,Rain,315
2013-7-28,79,65,51,59,55,51,100,71,42,30.07,30.03,29.98,10,10,10,13,2,15,0.00,0,,218
2013-7-29,78,68,58,64,60,57,93,75,56,30.17,30.13,30.06,10,10,10,9,3,13,0.00,1,,149
2013-7-30,74,70,65,72,67,61,100,91,81,30.15,30.09,30.03,10,6,1,12,5,15,0.55,7,Rain,144
2013-7-31,86,78,70,74,71,69,100,83,65,30.02,29.99,29.94,10,7,4,15,3,17,0.00,7,,339